Tirstrup, Denmark

2:06 PM CEST on September 22, 2017 (GMT +0200)
Aarhus

Weather History for EKAH - December, 2013

Change the Weather History Date:

Sunday, December 1, 2013

  Actual Average Record
Temperature  
Mean Temperature 40 °F -  
Max Temperature 48 °F 39 °F 48 °F (2000)
Min Temperature 32 °F 35 °F 21 °F (1997)
Degree Days  
Heating Degree Days 25    
Moisture  
Dew Point 36 °F    
Average Humidity 73    
Maximum Humidity 93    
Minimum Humidity 45    
Precipitation  
Precipitation 0.00 in - - ()
Sea Level Pressure  
Sea Level Pressure 30.07 in    
Wind  
Wind Speed 17 mph ()    
Max Wind Speed 30 mph    
Max Gust Speed 51 mph    
Visibility 7.0 miles    
Events      
Averages and records for this station are not official NWS values.
T = Trace of Precipitation, MM = Missing Value Source: Averaged Metar Reports

Daily Weather History Graph

Daily Weather History Graph

Search for Another Location

Airport or City:

Trip Planner

Search our weather history database for the weather conditions in past years. The results will help you decide how hot, cold, wet, or windy it might be!

Date:

Astronomy

Dec. 01, 2013 Rise Set
Actual Time 8:26 AM CET 3:46 PM CET
Civil Twilight 7:40 AM CET 4:32 PM CET
Nautical Twilight 6:51 AM CET 5:20 PM CET
Astronomical Twilight 6:06 AM CET 6:06 PM CET
Moon 6:06 AM CET (12/1) 2:58 PM CET (12/1)
Length of Visible Light 8h 52m
Length of Day
7h 20m
Waning Crescent, 3% of the Moon is Illuminated
Dec 1
Waning Crescent
Dec 3
New
Dec 9
First Quarter
Dec 17
Full
Dec 25
Last Quarter

Hourly Weather History & Observations

Time (CET) Temp. Windchill Dew Point Humidity Pressure Visibility Wind Dir Wind Speed Gust Speed Precip Events Conditions
12:20 AM 41.0 °F 33.9 °F 37.4 °F 87% 30.01 in 6.2 mi West 12.7 mph - N/A   Mostly Cloudy
12:50 AM 42.8 °F 36.2 °F 39.2 °F 87% 30.01 in 6.2 mi West 12.7 mph - N/A   Mostly Cloudy
1:00 AM 44 °F - 38 °F 74% 30.03 in 12 mi West 13.8 mph - -  
1:20 AM 44.6 °F 37.4 °F 39.2 °F 81% 30.01 in 6.2 mi West 16.1 mph - N/A   Mostly Cloudy
1:50 AM 44.6 °F 36.9 °F 41.0 °F 87% 29.98 in 6.2 mi West 18.4 mph - N/A   Mostly Cloudy
2:20 AM 44.6 °F 37.8 °F 41.0 °F 87% 29.98 in - West 15.0 mph - N/A   Overcast
2:50 AM 44.6 °F 37.4 °F 42.8 °F 93% 29.95 in 5.6 mi West 16.1 mph - N/A   Overcast
3:20 AM 46.4 °F 38.7 °F 42.8 °F 87% 29.95 in 6.2 mi West 20.7 mph 36.8 mph N/A   Overcast
3:50 AM 46.4 °F 38.3 °F 41.0 °F 81% 29.95 in 6.2 mi West 23.0 mph 35.7 mph N/A   Overcast
4:00 AM 47 °F - 41 °F 73% 29.96 in 16 mi West 19.6 mph - -  
4:20 AM 48.2 °F - 41.0 °F 76% 29.95 in 6.2 mi West 20.7 mph 35.7 mph N/A   Overcast
4:50 AM 46.4 °F 39.0 °F 42.8 °F 87% 29.92 in 6.2 mi West 19.6 mph - N/A   Overcast
5:20 AM 48.2 °F - 42.8 °F 82% 29.92 in 6.2 mi West 21.9 mph - N/A   Overcast
5:50 AM 48.2 °F - 41.0 °F 76% 29.92 in 6.2 mi West 25.3 mph 40.3 mph N/A   Overcast
6:20 AM 48.2 °F - 41.0 °F 76% 29.92 in 6.2 mi West 26.5 mph 38.0 mph N/A   Mostly Cloudy
6:50 AM 48.2 °F - 41.0 °F 76% 29.92 in 6.2 mi West 25.3 mph 40.3 mph N/A   Mostly Cloudy
7:00 AM 48 °F - 40 °F 66% 29.93 in 14 mi West 27.6 mph - -  
7:20 AM 48.2 °F - 41.0 °F 76% 29.92 in 6.2 mi West 26.5 mph 38.0 mph N/A   Mostly Cloudy
7:50 AM 48.2 °F - 41.0 °F 76% 29.92 in 6.2 mi West 27.6 mph 40.3 mph N/A   Mostly Cloudy
8:20 AM 48.2 °F - 39.2 °F 71% 29.92 in 6.2 mi West 27.6 mph 40.3 mph N/A   Mostly Cloudy
8:50 AM 48.2 °F - 39.2 °F 71% 29.92 in 6.2 mi West 25.3 mph 36.8 mph N/A   Scattered Clouds
9:20 AM 48.2 °F - 37.4 °F 66% 29.92 in 6.2 mi West 26.5 mph 42.6 mph N/A   Partly Cloudy
9:50 AM 48.2 °F - 37.4 °F 66% 29.95 in 6.2 mi West 24.2 mph 36.8 mph N/A   Mostly Cloudy
10:00 AM 48 °F - 38 °F 58% 29.96 in 12 mi West 28.8 mph - -   Mostly Cloudy
10:20 AM 48.2 °F - 37.4 °F 66% 29.95 in 6.2 mi West 25.3 mph 41.4 mph N/A   Scattered Clouds
10:50 AM 48.2 °F - 37.4 °F 66% 29.95 in 6.2 mi WNW 29.9 mph 50.6 mph N/A   Partly Cloudy
11:20 AM 48.2 °F - 37.4 °F 66% 29.98 in 6.2 mi WNW 27.6 mph 39.1 mph N/A   Partly Cloudy
11:50 AM 48.2 °F - 39.2 °F 71% 29.98 in 6.2 mi WNW 26.5 mph 40.3 mph N/A   Scattered Clouds
12:20 PM 48.2 °F - 37.4 °F 66% 29.98 in 6.2 mi WNW 26.5 mph 42.6 mph N/A   Partly Cloudy
1:00 PM 48 °F - 35 °F 51% 30.00 in 8 mi WNW 27.6 mph - -  
1:20 PM 48.2 °F - 35.6 °F 62% 30.01 in 6.2 mi WNW 25.3 mph 39.1 mph N/A   Unknown
1:50 PM 48.2 °F - 35.6 °F 62% 30.01 in 6.2 mi WNW 25.3 mph 39.1 mph N/A   Unknown
2:20 PM 48.2 °F - 35.6 °F 62% 30.04 in 6.2 mi WNW 21.9 mph - N/A   Unknown
2:50 PM 48.2 °F - 33.8 °F 58% 30.04 in 6.2 mi WNW 25.3 mph 38.0 mph N/A   Unknown
3:20 PM 48.2 °F - 33.8 °F 58% 30.06 in 6.2 mi WNW 18.4 mph - N/A   Unknown
3:50 PM 46.4 °F 39.2 °F 32.0 °F 57% 30.06 in 6.2 mi WNW 18.4 mph 29.9 mph N/A   Partly Cloudy
4:00 PM 46 °F - 31 °F 45% 30.09 in 14 mi WNW 19.6 mph - -  
4:20 PM 46.4 °F 39.0 °F 32.0 °F 57% 30.09 in 6.2 mi WNW 19.6 mph - N/A   Partly Cloudy
4:50 PM 44.6 °F 37.8 °F 32.0 °F 61% 30.12 in 6.2 mi WNW 15.0 mph - N/A   Unknown
5:20 PM 42.8 °F 36.2 °F 32.0 °F 66% 30.15 in 6.2 mi WNW 12.7 mph - N/A   Unknown
5:50 PM 42.8 °F 35.8 °F 32.0 °F 66% 30.15 in 6.2 mi WNW 13.8 mph - N/A   Unknown
6:20 PM 42.8 °F 36.6 °F 32.0 °F 66% 30.18 in 6.2 mi WNW 11.5 mph - N/A   Unknown
6:50 PM 41.0 °F 34.7 °F 32.0 °F 70% 30.21 in 6.2 mi WNW 10.4 mph - N/A   Unknown
7:00 PM 41 °F - 32 °F 60% 30.24 in 10 mi WNW 10.4 mph - -  
7:20 PM 41.0 °F 35.2 °F 32.0 °F 70% 30.24 in 6.2 mi WNW 9.2 mph - N/A   Unknown
7:50 PM 39.2 °F 33.6 °F 32.0 °F 75% 30.27 in 6.2 mi WNW 8.1 mph - N/A   Unknown
8:20 PM 39.2 °F 35.9 °F 32.0 °F 75% 30.27 in 6.2 mi WNW 4.6 mph - N/A   Unknown
8:50 PM 37.4 °F 33.8 °F 32.0 °F 81% 30.30 in 6.2 mi West 4.6 mph - N/A   Unknown
9:20 PM 35.6 °F 32.8 °F 30.2 °F 81% 30.33 in 6.2 mi West 3.5 mph - N/A   Unknown
9:50 PM 35.6 °F 32.8 °F 30.2 °F 81% 30.33 in 6.2 mi West 3.5 mph - N/A   Unknown
10:00 PM 35 °F - 30 °F 77% 30.36 in 7 mi WNW 4.6 mph - -  
10:20 PM 35.6 °F - 32.0 °F 87% 30.36 in 6.2 mi WNW 2.3 mph - N/A   Unknown
10:50 PM 33.8 °F - 30.2 °F 87% 30.36 in 6.2 mi West 2.3 mph - N/A   Unknown
11:20 PM 32.0 °F 28.7 °F 28.4 °F 87% 30.39 in 6.2 mi West 3.5 mph - N/A   Unknown
11:50 PM 32.0 °F - 30.2 °F 93% 30.39 in 5.0 mi West 2.3 mph - N/A   Unknown